Location: Burland Observatory
(39.4088°N, 105.4217°W)
Time: 06:22:45
(UTC-07:00)

Vanguard 3 - Pass Details

Date: 09 December 2019
Orbit: 508 x 3263 km, 33.3° (Epoch: 17 January)

Event Time Altitude Azimuth Distance (km) Brightness Sun altitude
Rises 13:05:32 0° 278° (W) 5,567 11.5 25.5°
Reaches altitude 10° 13:08:50 10° 273° (W) 4,879 11.4 25.3°
Maximum altitude 13:23:13 50° 204° (SSW) 3,560 11.8 24.3°
Drops below altitude 10° 13:41:51 10° 137° (SE) 6,154 12.0 22.8°
Sets 13:46:42 0° 132° (SE) 7,060 12.1 22.4°
